Change the Weather History Date:

Tuesday, November 13, 2012

  Actual Average Record
Temperature  
Mean Temperature 74 °F -  
Max Temperature 78 °F - - ()
Min Temperature 70 °F - - ()
Cooling Degree Days 9    
Growing Degree Days 24 (Base 50)    
Moisture  
Dew Point 62 °F    
Average Humidity 64    
Maximum Humidity 73    
Minimum Humidity 48    
Precipitation  
Precipitation 0.00 in - - ()
Sea Level Pressure  
Sea Level Pressure 30.03 in    
Wind  
Wind Speed 26 mph ()    
Max Wind Speed 33 mph    
Max Gust Speed -    
T = Trace of Precipitation, MM = Missing Value Source: Averaged Metar Reports

Daily Weather History Graph

Daily Weather History Graph

Search for Another Location

Airport or City:

Trip Planner

Search our weather history database for the weather conditions in past years. The results will help you decide how hot, cold, wet, or windy it might be!

Date:

Astronomy

Nov. 13, 2012 Rise Set
Actual Time 5:17 AM AEST 6:20 PM AEST
Civil Twilight 4:53 AM AEST 6:43 PM AEST
Nautical Twilight 4:25 AM AEST 7:11 PM AEST
Astronomical Twilight 3:57 AM AEST 7:40 PM AEST
Moon 4:19 AM AEST (11/13) 5:37 PM AEST (11/13)
Length of Visible Light 13h 50m
Length of Day
13h 03m
Waning Crescent, 1% of the Moon is Illuminated
Nov 13
Waning Crescent
Nov 14
New
Nov 21
First Quarter
Nov 29
Full
Dec 7
Last Quarter

Hourly Weather History & Observations

Time (AEST) Temp. Dew Point Humidity Pressure Visibility Wind Dir Wind Speed Gust Speed Precip Events Conditions
12:00 AM 74 °F 63 °F 60% 30.05 in - ESE 32.2 mph - -  
12:00 AM 73.4 °F 62.6 °F 69% 30.04 in - ESE 32.2 mph - N/A   Unknown
12:30 AM 73.4 °F 64.4 °F 73% 30.04 in - ESE 29.9 mph - N/A   Unknown
1:00 AM 73.4 °F 62.6 °F 69% 30.04 in - ESE 33.4 mph - N/A   Unknown
1:30 AM 73.4 °F 64.4 °F 73% 30.04 in - ESE 31.1 mph - N/A   Unknown
2:00 AM 71.6 °F 62.6 °F 73% 30.01 in - ESE 28.8 mph - N/A   Unknown
2:30 AM 71.6 °F 62.6 °F 73% 30.01 in - SE 21.9 mph - N/A   Unknown
3:00 AM 73 °F 64 °F 66% 30.01 in - ESE 27.6 mph - -  
3:00 AM 73.4 °F 64.4 °F 73% 30.01 in - ESE 27.6 mph - N/A   Unknown
3:30 AM 71.6 °F 62.6 °F 73% 30.01 in - ESE 29.9 mph - N/A   Unknown
4:00 AM 71.6 °F 60.8 °F 69% 30.01 in - ESE 27.6 mph - N/A   Unknown
4:30 AM 73.4 °F 62.6 °F 69% 30.01 in - SE 27.6 mph - N/A   Unknown
5:00 AM 73.4 °F 62.6 °F 69% 30.01 in - SE 28.8 mph - N/A   Unknown
5:30 AM 73.4 °F 64.4 °F 73% 30.04 in - SE 29.9 mph - N/A   Unknown
6:00 AM 74 °F 62 °F 58% 30.03 in - ESE 31.1 mph - -  
6:00 AM 73.4 °F 62.6 °F 69% 30.04 in - ESE 31.1 mph - N/A   Unknown
6:30 AM 73.4 °F 62.6 °F 69% 30.04 in - SE 29.9 mph - N/A   Unknown
7:00 AM 75.2 °F 64.4 °F 69% 30.06 in - SE 27.6 mph - N/A   Unknown
7:30 AM 75.2 °F 64.4 °F 69% 30.06 in - SE 27.6 mph - N/A   Unknown
8:00 AM 77.0 °F 64.4 °F 65% 30.06 in - SE 28.8 mph - N/A   Unknown
8:30 AM 77.0 °F 64.4 °F 65% 30.06 in - SE 28.8 mph - N/A   Unknown
9:00 AM 77 °F 65 °F 57% 30.07 in - ESE 29.9 mph - -  
9:00 AM 77.0 °F 64.4 °F 65% 30.06 in - ESE 29.9 mph - N/A   Unknown
9:30 AM 77.0 °F 62.6 °F 61% 30.06 in - SE 29.9 mph - N/A   Unknown
10:00 AM 77.0 °F 62.6 °F 61% 30.06 in - SE 31.1 mph - N/A   Unknown
10:30 AM 77.0 °F 62.6 °F 61% 30.06 in - SE 29.9 mph - N/A   Unknown
11:00 AM 77.0 °F 62.6 °F 61% 30.06 in - SE 32.2 mph - N/A   Unknown
11:30 AM 77.0 °F 64.4 °F 65% 30.06 in - SE 28.8 mph - N/A   Unknown
12:00 PM 77 °F 61 °F 48% 30.05 in - SE 31.1 mph - -  
12:00 PM 77.0 °F 60.8 °F 57% 30.04 in - SE 31.1 mph - N/A   Unknown
12:30 PM 77.0 °F 62.6 °F 61% 30.04 in - SE 28.8 mph - N/A   Unknown
1:00 PM 78.8 °F 62.6 °F 57% 30.04 in - SE 31.1 mph - N/A   Unknown
1:30 PM 77.0 °F 60.8 °F 57% 30.01 in - SE 28.8 mph - N/A   Unknown
2:00 PM 78.8 °F 62.6 °F 57% 30.01 in - SE 27.6 mph - N/A   Unknown
2:30 PM 77.0 °F 62.6 °F 61% 30.01 in - SE 29.9 mph - N/A   Unknown
3:00 PM 76 °F 62 °F 53% 30.00 in - ESE 27.6 mph - -  
3:00 PM 75.2 °F 62.6 °F 65% 30.01 in - ESE 27.6 mph - N/A   Unknown
3:30 PM 77.0 °F 62.6 °F 61% 30.01 in - SE 28.8 mph - N/A   Unknown
4:00 PM 75.2 °F 62.6 °F 65% 29.98 in - ESE 29.9 mph - N/A   Unknown
4:30 PM 77.0 °F 64.4 °F 65% 30.01 in - ESE 26.5 mph - N/A   Unknown
5:00 PM 75.2 °F 60.8 °F 61% 30.01 in - ESE 28.8 mph - N/A   Unknown
5:30 PM 75.2 °F 60.8 °F 61% 30.01 in - ESE 25.3 mph - N/A   Unknown
6:00 PM 75 °F 62 °F 54% 30.01 in - ESE 24.2 mph - -  
6:00 PM 75.2 °F 62.6 °F 65% 30.01 in - ESE 24.2 mph - N/A   Unknown
6:30 PM 75.2 °F 60.8 °F 61% 30.01 in - ESE 23.0 mph - N/A   Unknown
7:00 PM 75.2 °F 62.6 °F 65% 30.04 in - ESE 21.9 mph - N/A   Unknown
7:30 PM 75.2 °F 60.8 °F 61% 30.04 in - ESE 20.7 mph - N/A   Unknown
8:00 PM 73.4 °F 60.8 °F 65% 30.04 in - ESE 20.7 mph - N/A   Unknown
8:30 PM 73.4 °F 60.8 °F 65% 30.04 in - ESE 20.7 mph - N/A   Unknown
9:00 PM 74 °F 61 °F 54% 30.06 in - ESE 21.9 mph - -  
9:00 PM 73.4 °F 60.8 °F 65% 30.06 in - ESE 21.9 mph - N/A   Unknown
9:30 PM 73.4 °F 60.8 °F 65% 30.06 in - ESE 19.6 mph - N/A   Unknown
10:00 PM 75.2 °F 60.8 °F 61% 30.06 in - ESE 24.2 mph - N/A   Unknown
10:30 PM 75.2 °F 62.6 °F 65% 30.06 in - ESE 20.7 mph - N/A   Unknown
11:00 PM 73.4 °F 60.8 °F 65% 30.04 in - ESE 20.7 mph - N/A   Unknown
11:30 PM 75.2 °F 60.8 °F 61% 30.04 in - ESE 21.9 mph - N/A   Unknown